Location: Asheville, NC
(35.6000°N, 82.5500°W)
Time: 17:18:44
(UTC-04:00)

XW-2B - Pass Details

Date: 12 March 2018
Orbit: 511 x 528 km, 97.5° (Epoch: 19 July)

Event Time Altitude Azimuth Distance (km) Brightness Sun altitude
Rises 06:24:18 0° 39° (NE) 2,660 ? -17.2°
Reaches altitude 10° 06:28:12 10° 80° (E) 1,768 ? -16.4°
Maximum altitude 06:29:00 11° 92° (E) 1,732 ? -16.3°
Drops below altitude 10° 06:29:48 10° 104° (ESE) 1,766 ? -16.1°
Sets 06:33:40 0° 145° (SE) 2,650 ? -15.3°
